This is the latest recevied weather packets stored in our database for station/object OK2ZA-6. If no packets are shown the sender has not sent any weather packets the latest 10 day(s).
| Time | Temp. | Humidity | Pressure | Rain* | Wind** | Luminosity | Snow |
|---|---|---|---|---|---|---|---|
| 1788153604 | 18.89° C | 83% | 1014.9 hPa | 0.25 mm | - | - | - |
| 1788153004 | 18.89° C | 82% | 1014.6 hPa | 0.25 mm | - | - | - |
| 1788152404 | 18.33° C | 84% | 1014.6 hPa | 0.51 mm | - | - | - |
| 1788151804 | 17.78° C | 86% | 1014.6 hPa | 0.51 mm | - | - | - |
| 1788151204 | 17.78° C | 86% | 1014.7 hPa | 0.51 mm | - | - | - |
| 1788150604 | 17.78° C | 86% | 1014.7 hPa | 0.51 mm | - | - | - |
| 1788150003 | 17.78° C | 87% | 1014.8 hPa | 0.51 mm | - | - | - |
| 1788149404 | 17.22° C | 88% | 1015.4 hPa | 0.51 mm | - | - | - |
| 1788148805 | 17.22° C | 87% | 1015.8 hPa | 0.51 mm | - | - | - |
| 1788148204 | 17.22° C | 87% | 1015.7 hPa | 0.25 mm | - | - | - |
| 1788147604 | 17.22° C | 87% | 1015.7 hPa | 0.25 mm | - | - | - |
| 1788147004 | 17.22° C | 85% | 1015.7 hPa | 0.25 mm | - | - | - |
| 1788146404 | 17.22° C | 82% | 1015.6 hPa | 0.25 mm | - | - | - |
| 1788145804 | 17.78° C | 76% | 1015.9 hPa | 0 mm | - | - | - |
| 1788145205 | 17.78° C | 73% | 1015.6 hPa | 0 mm | - | - | - |
| 1788144604 | 18.33° C | 71% | 1015.4 hPa | 0 mm | - | - | - |
| 1788144004 | 18.89° C | 71% | 1015.3 hPa | 0 mm | - | - | - |
| 1788143404 | 18.33° C | 67% | 1015.2 hPa | 0 mm | - | - | - |
| 1788142804 | 18.33° C | 70% | 1015.3 hPa | 0 mm | - | - | - |
| 1788142204 | 18.89° C | 69% | 1015.4 hPa | 0 mm | - | - | - |
| 1788141604 | 18.89° C | 66% | 1015.3 hPa | 0 mm | - | - | - |
| 1788141004 | 18.89° C | 66% | 1015.4 hPa | 0 mm | - | - | - |
| 1788140404 | 19.44° C | 64% | 1015.5 hPa | 0 mm | - | - | - |
| 1788139804 | 19.44° C | 64% | 1015.4 hPa | 0 mm | - | - | - |
| 1788139204 | 18.89° C | 64% | 1015.4 hPa | 0 mm | - | - | - |
* Rain latest hour (hover to see other rain measurements)
** Current wind speed in m/s (hover to see current wind gust speed)